星链-4439 (STARLINK-4439 )

导读 | 星芒AI

STARLINK-4439 是 SpaceX 星链计划中的一颗低轨通信卫星,属于第 17 批组网发射的星链卫星之一。该卫星运行在约 550 公里的高度,用于提供全球互联网服务,尤其在偏远地区。星链系统通过部署大量卫星,实现低延迟、高速度的网络连接。STARLINK-4439 采用先进推进系统,具备自主变轨和避碰能力,有助于提升星座稳定性和可持续性。

基本信息
目录编号:
53498
目录名称:
STARLINK-4439
国际标识:
2022-099AK
轨道中心:
EARTH
卫星名称:
星链-4439
卫星全名:
星链-4439 (STARLINK-4439 )
卫星状态:
在轨 (已飞行1227 天)
发射日期:
2022-08-12 UTC
国别 :
美国 (US)
星等 :
--
轨道信息
数据来源 国际轨道数据
星历时间: 2025-12-21T02:44:06+0800
12小时前
查看轨道信息
半长轴: 6927.662km
偏心率: 0.0001543
轨道倾角: 97.605°
近地点辐角 91.851°
升交点赤经 113.386°
平近点角 268.290°
近地点: 548.456km
远地点: 550.594km
周期: 95.640分钟
每日圈数: 15.056456
详细信息
固有亮度:
5
最大亮度:
2.5
卫星平台:
Starlink v1.5
覆盖范围:
全球
运营商:
太空探索技术公司
运营商所在国:
美国
制造商(研发单位):
太空探索技术公司
制造商所在国:
美国
使用方式:
暂无
卫星简介
星链(Starlink)计划是由太空探索技术公司(SpaceX)提出的一个巨型低轨卫星互联网星座项目,计划在2019年至2024年间在太空搭建由约1.2万颗卫星组成的“星链”网络,其中1584颗将部署在地球上空550千米处的近地轨道,并从2020年开始工作。该卫星仍在工作。
2D轨道图
3D轨道图
轨道高度分析图
轨道倾角分析图
轨道综合分析图
查看轨道综合分析图